Theta_e
344 345 343 343 350 346 352 346 346 350 347 349 350 356 356 356 357 356 351 354 344 342 339 338 338 342 354 355 355 353 352 352 352 348 349 351 354 353 344 343 342 345 351
340 341 343 346 349 352 347 352 348 346 348 348 349 349 354 358 358 357 356 358 358 357 356 356 354 354 353 348 354 357 355 355 354 353 354 354 352 353 346 344 350 352 351
341 340 345 349 350 350 351 351 351 347 347 355 349 349 349 351 357 357 355 358 360 359 358 356 354 356 357 355 355 354 353 353 353 352 350 352 352 351 353 353 353 353 353
351 350 341 347 351 351 350 351 344 346 345 349 351 349 349 350 355 356 358 359 358 360 359 359 358 358 358 356 356 357 356 356 353 353 351 349 351 351 352 355 352 351 351
352 351 345 340 342 349 351 349 350 344 344 345 348 351 352 352 354 356 357 357 358 358 359 359 358 357 352 349 352 353 352 352 350 347 346 347 346 346 346 350 351 351 352
351 352 349 340 340 340 340 340 338 338 342 345 349 352 353 353 351 352 351 353 354 356 358 358 358 356 353 347 345 343 342 340 338 348 346 345 346 347 348 351 353 354 354
353 353 352 350 347 342 340 339 340 341 341 341 342 343 341 339 344 345 345 344 347 351 352 353 353 350 350 352 352 352 347 338 337 340 338 335 338 343 355 355 355 355 354
354 353 353 353 350 345 347 348 345 341 343 342 342 343 343 339 334 333 332 333 334 337 338 340 342 342 340 339 338 347 347 349 350 351 351 349 348 350 354 354 353 353 352
351 352 353 354 353 348 347 345 345 347 347 347 347 345 344 345 345 345 345 345 344 343 343 344 346 347 344 339 341 344 348 351 352 352 353 354 354 353 353 354 354 353 351
349 347 347 352 353 352 350 346 349 349 349 352 350 348 349 346 346 347 347 347 349 350 350 350 349 348 348 349 349 350 352 353 356 357 358 359 358 356 354 354 354 355 353
346 342 343 346 346 347 347 347 351 349 352 355 355 355 358 357 354 350 350 351 352 354 355 355 355 355 355 353 351 351 352 353 354 355 358 358 358 356 357 357 354 350 352
342 345 346 346 347 347 349 350 351 352 354 353 353 355 358 357 358 357 352 351 351 352 356 357 357 357 356 356 355 353 353 354 355 355 357 355 355 356 356 355 352 350 348
336 339 341 344 346 346 349 350 351 350 352 355 356 358 360 359 358 360 361 357 354 352 352 355 355 353 354 354 354 353 354 356 356 355 355 355 355 355 354 350 350 349 347
334 334 335 338 338 341 343 344 348 350 353 353 355 356 357 356 355 356 357 361 359 355 354 353 351 349 351 352 355 356 356 356 356 357 356 355 355 354 347 340 342 349 346
332 333 333 334 334 333 334 336 340 344 348 350 350 350 351 352 354 355 356 358 358 357 358 354 353 352 354 352 354 356 358 357 357 356 355 355 350 344 341 343 343 347 345
330 330 329 332 332 333 333 335 333 335 338 341 342 344 346 348 348 349 350 352 354 355 356 354 351 350 351 340 352 357 357 357 357 356 355 354 348 347 341 346 348 346 342
322 325 326 328 330 330 331 332 329 332 333 336 337 338 340 342 344 345 347 349 351 353 355 354 351 351 351 353 356 357 356 356 357 357 353 351 350 345 343 347 346 344 342
323 324 324 323 324 326 327 328 329 329 330 331 331 334 336 338 339 340 341 343 346 349 351 351 350 350 351 354 356 356 356 357 357 357 355 354 351 349 348 349 345 343 342
316 318 319 322 323 324 322 324 326 327 328 329 326 327 329 332 334 337 338 340 341 343 345 346 347 347 347 346 346 347 348 351 354 355 354 352 351 350 349 347 345 344 343
317 315 315 316 316 318 320 318 318 319 323 325 325 324 323 325 328 330 333 335 336 337 337 338 339 341 342 343 345 345 346 348 350 352 352 351 349 350 347 346 343 344 342
315 316 315 315 317 317 317 319 321 321 322 322 322 322 320 322 323 327 329 331 332 333 333 334 335 337 338 339 340 341 342 344 346 346 347 348 349 349 344 341 344 343 341
315 315 316 317 316 314 315 314 317 318 319 320 320 319 317 319 321 321 322 324 327 328 330 330 331 333 334 336 337 339 340 341 341 343 345 347 346 345 343 343 343 340 341
313 313 314 315 315 313 312 314 314 314 315 316 317 317 316 316 317 317 318 319 321 322 326 328 329 329 330 332 333 334 336 337 338 340 340 340 340 341 342 341 341 341 341
311 312 313 313 313 312 311 311 311 312 311 312 313 314 314 314 313 312 312 313 314 316 318 320 324 326 327 328 329 331 333 334 334 335 336 337 337 338 338 339 339 337 336
309 309 311 312 311 310 310 310 310 311 312 312 311 312 312 313 312 311 310 309 309 309 309 309 311 313 318 321 323 326 328 329 331 333 335 335 335 334 334 335 336 336 336
306 307 308 308 309 309 309 309 309 309 309 309 309 310 310 311 311 310 309 308 307 307 307 306 305 305 306 307 308 310 319 322 326 329 330 331 332 333 334 334 334 335 335
Wind_Speed
32 30 30 32 30 28 24 23 22 20 19 16 14 13 13 13 12 10 10 10 10 9 10 11 10 10 8 9 10 11 11 12 18 20 19 19 22 23 22 21 21 21 20
35 33 30 28 31 29 30 25 25 23 21 19 16 15 15 15 14 13 11 11 12 12 11 12 12 10 12 11 11 13 14 15 18 27 24 22 23 27 28 25 22 19 20
38 35 32 27 28 29 27 26 27 25 20 19 19 18 19 18 16 15 15 13 14 15 14 14 14 13 14 13 15 15 15 17 19 23 28 25 25 23 24 22 20 21 17
31 32 36 31 28 27 27 26 31 29 25 22 20 20 19 19 18 18 17 16 16 16 17 16 16 16 17 17 17 17 18 19 20 24 26 27 28 25 24 22 24 22 23
30 32 36 35 32 27 27 26 27 32 31 28 25 24 23 23 22 21 20 20 19 19 19 20 20 21 23 24 22 22 24 25 25 26 29 29 30 28 28 28 26 26 23
28 27 31 37 37 34 30 26 25 30 33 32 29 27 26 26 25 27 28 24 21 21 22 22 22 24 27 29 30 30 30 32 36 31 32 32 36 33 29 28 28 26 22
21 21 22 28 34 36 34 32 31 30 30 32 32 31 33 35 34 35 35 33 31 28 29 29 29 28 29 28 30 33 38 38 35 34 37 39 38 33 27 29 27 25 25
18 18 19 21 26 30 29 30 31 32 33 34 33 32 31 33 34 35 34 34 36 38 38 38 38 39 39 39 38 32 33 32 33 33 35 38 34 29 28 27 31 32 32
14 15 13 17 20 25 27 28 28 25 27 29 30 31 32 31 29 28 27 29 32 34 35 36 36 37 37 36 36 36 35 33 31 32 33 33 34 33 31 32 34 29 30
17 16 17 28 23 23 22 24 22 25 27 24 27 29 30 33 31 30 29 31 30 31 32 33 35 36 35 32 31 32 32 33 29 28 27 28 31 34 31 28 28 29 29
16 16 20 31 23 21 22 23 21 23 23 23 24 24 25 26 28 31 31 33 32 27 28 29 28 30 32 32 30 30 34 33 33 34 29 27 27 28 27 30 30 25 24
6 9 13 16 18 17 17 19 20 22 23 24 24 23 23 27 27 29 32 33 34 34 31 27 26 27 30 34 35 33 33 33 35 34 27 30 33 34 29 24 29 28 25
7 3 3 5 9 9 7 9 11 14 16 16 18 20 21 20 19 21 26 27 31 35 35 31 33 33 34 37 38 36 33 34 36 27 30 34 34 29 25 24 26 25 21
6 7 6 3 1 6 4 7 4 10 12 14 16 17 17 17 16 19 19 18 20 23 27 29 28 28 33 29 29 31 32 32 29 26 30 34 28 25 19 25 26 22 20
8 9 8 9 10 9 6 6 6 13 13 14 14 15 16 17 18 20 22 23 22 21 22 24 24 31 24 24 24 25 25 28 31 29 29 26 20 18 22 20 20 20 16
8 9 10 11 12 11 11 8 9 7 10 11 15 19 21 23 25 26 26 24 25 27 27 27 30 32 35 26 28 29 28 29 28 27 26 22 15 19 23 23 21 17 11
10 8 12 11 10 11 12 11 11 11 11 9 9 13 18 21 22 23 24 26 27 26 23 22 24 28 32 33 33 33 32 28 25 22 18 16 16 22 25 23 17 14 15
20 20 13 10 10 12 11 13 11 11 12 8 13 13 14 15 16 18 17 17 11 19 20 20 23 26 26 28 30 31 29 25 23 18 15 14 18 24 27 21 16 15 17
9 10 14 21 29 30 22 13 10 10 10 13 11 11 12 12 14 14 14 12 12 13 15 16 18 21 24 26 28 29 31 33 26 23 20 23 20 24 22 18 18 16 16
10 9 9 8 8 7 9 11 14 13 12 12 13 14 15 16 14 13 12 11 11 11 12 15 17 19 21 21 21 23 23 24 26 25 26 25 21 19 17 16 17 17 18
6 7 8 8 7 8 8 8 8 10 9 11 11 15 16 15 15 16 16 15 14 13 13 12 12 14 18 18 16 16 16 15 15 17 19 20 17 16 16 17 18 17 16
8 8 9 9 9 7 7 8 9 10 10 10 11 12 17 9 11 12 15 16 16 15 15 14 13 12 12 14 11 9 8 7 8 8 10 11 14 16 17 17 17 16 16
10 10 11 11 10 11 11 8 11 10 10 10 11 10 10 11 11 11 11 13 15 15 15 15 14 14 12 10 10 7 5 6 6 8 8 8 9 11 12 14 15 15 15
10 10 10 10 10 11 12 12 11 13 12 11 11 11 11 12 11 11 10 10 10 13 14 14 13 14 14 15 13 11 12 10 10 9 9 7 8 9 9 10 12 12 12
9 8 10 10 11 11 12 12 13 13 13 13 14 13 12 12 12 11 11 10 10 10 10 12 13 14 14 13 14 15 15 14 13 12 11 10 11 10 10 10 12 13 14
6 10 11 10 11 13 14 15 15 16 16 16 15 15 15 15 13 13 12 11 10 10 11 9 10 14 15 14 14 14 13 11 14 15 12 13 13 14 14 13 14 14 15
Wind_Direction
212 214 212 214 214 218 216 220 223 227 230 228 227 218 221 222 225 233 235 236 260 257 252 257 262 261 257 264 272 273 279 286 291 298 299 305 296 301 308 308 306 306 307
219 217 216 213 213 218 224 220 224 230 237 231 233 236 229 227 231 239 250 244 252 250 251 251 255 257 267 272 269 270 273 278 287 293 299 305 304 300 307 310 312 305 304
219 219 217 213 214 217 218 218 222 229 232 229 238 242 246 241 239 247 253 256 251 253 254 254 258 256 259 261 260 267 277 283 285 289 293 298 296 300 300 308 304 309 316
211 213 220 216 215 218 217 218 225 227 230 233 237 246 247 247 247 248 252 259 260 256 255 256 258 258 261 267 269 270 279 283 287 290 293 297 300 305 302 299 306 305 302
214 216 221 226 224 219 220 222 226 229 232 234 239 242 247 251 251 253 253 253 257 260 259 260 264 266 270 274 271 273 272 281 284 286 288 292 293 295 295 300 301 305 304
213 218 222 228 229 230 229 230 233 236 239 242 242 242 242 244 247 253 254 253 256 262 266 266 267 272 280 284 281 279 277 280 282 281 282 283 282 291 296 295 295 297 294
218 221 224 227 228 232 234 233 234 237 241 245 248 248 249 250 249 252 260 265 265 262 263 267 270 270 272 273 277 285 289 290 285 284 282 283 286 290 292 290 291 286 286
210 213 221 230 235 234 232 232 237 238 241 245 249 252 255 257 257 258 261 264 267 268 269 270 271 272 275 276 280 275 273 275 279 283 286 291 294 294 292 291 287 285 288
208 202 216 233 238 240 238 236 238 242 245 246 248 250 254 257 257 260 261 263 264 266 268 269 272 275 277 278 279 278 278 277 280 283 286 287 287 289 287 281 279 285 287
199 217 237 228 221 232 232 238 239 238 243 243 249 253 255 254 254 254 255 258 259 265 269 272 273 274 277 277 278 280 278 283 284 284 281 282 286 293 294 292 288 279 278
210 197 212 245 248 247 240 239 244 248 245 245 251 252 254 257 260 255 257 258 258 259 262 266 269 274 280 281 279 277 279 285 284 284 283 281 281 285 285 295 297 296 277
170 196 208 221 225 233 245 238 242 247 250 258 264 262 262 265 267 267 266 261 260 257 257 260 263 266 268 272 277 276 277 280 279 279 277 277 286 290 292 284 287 295 282
58 94 257 255 238 251 240 246 252 261 271 278 271 266 261 263 259 264 270 272 261 260 261 256 256 273 271 268 273 275 277 276 281 275 274 286 294 298 288 294 290 290 287
55 47 36 20 11 297 303 272 273 259 255 266 267 267 272 275 269 259 262 270 287 271 267 273 272 280 274 276 274 278 279 280 278 274 279 288 292 285 293 297 294 293 284
67 53 34 29 24 1 341 324 299 282 272 268 276 278 280 277 275 279 277 276 272 266 272 279 281 274 268 273 277 275 271 273 280 289 285 283 283 273 302 304 298 293 286
45 46 33 28 23 4 7 8 336 308 314 301 293 291 288 290 290 291 289 287 286 285 283 277 276 272 278 281 288 281 278 278 282 284 277 272 264 272 297 307 300 287 270
333 21 39 11 8 356 346 347 354 351 333 318 318 310 302 297 289 286 290 293 291 285 281 276 275 275 278 281 282 283 285 279 279 270 273 265 261 277 293 295 291 266 256
262 266 269 303 344 336 335 331 333 341 336 346 336 328 323 323 316 302 295 293 296 281 273 273 278 282 281 279 276 277 282 276 272 270 256 254 269 283 288 283 274 265 256
307 307 294 279 271 270 282 310 321 328 332 322 326 327 324 324 321 324 328 313 300 292 290 286 281 280 282 284 286 286 277 269 256 250 255 257 279 280 281 272 272 270 260
291 285 279 277 280 287 266 265 275 295 314 317 322 322 330 333 331 330 334 337 329 319 314 308 300 294 290 286 286 283 273 270 265 257 257 264 269 271 262 264 267 264 259
246 258 269 265 249 252 277 288 299 304 293 296 313 306 326 333 332 336 337 333 330 331 327 322 318 312 297 285 286 286 280 274 270 265 260 259 260 254 248 258 258 256 248
257 255 252 260 268 279 274 284 274 272 281 286 293 299 316 328 321 325 328 336 336 330 323 323 324 321 318 304 287 281 282 294 297 284 262 255 255 250 250 251 247 248 240
255 259 260 260 264 269 282 276 275 278 279 282 285 289 296 302 312 318 326 325 322 326 325 321 316 310 309 302 312 318 320 325 315 306 289 273 263 252 247 244 241 238 234
254 256 254 254 258 259 272 276 275 278 285 285 284 286 292 298 307 310 319 316 320 318 313 314 314 308 304 303 297 287 288 294 294 289 285 277 270 263 250 239 238 239 241
254 262 258 255 257 263 266 274 277 278 278 282 286 287 289 290 295 297 301 309 310 311 309 313 313 311 310 308 303 296 289 286 278 269 256 253 248 253 257 255 250 250 250
268 270 265 260 262 265 268 270 270 274 278 279 278 280 281 281 283 286 288 292 295 295 299 307 306 309 308 307 305 305 301 301 281 265 262 258 251 247 247 250 250 250 253